Regional Weather Roundup
Issued by NWS Newport/Morehead, NC

Current Version | Previous Version | Graphics & Text | Print | Product List | Glossary Off
Versions: 1 2 3 4 5 6 7 8 9 10 11 12 13 14 15 16 17 18 19 20 21 22 23 24 25 26 27 28 29 30 31 32 33 34 35 36 37 38 39 40 41 42 43 44 45 46 47 48 49 50

000
ASUS42 KMHX 260513
RWRMHX
WEATHER ROUNDUP FOR EASTERN NORTH CAROLINA
NATIONAL WEATHER SERVICE NEWPORT/MOREHEAD CITY NC
100 AM EDT TUE MAY 26 2015

NOTE: "FAIR" INDICATES FEW OR NO CLOUDS BELOW 12,000 FEET
WITH NO SIGNIFICANT WEATHER AND/OR OBSTRUCTIONS TO VISIBILITY

NCZ015>017-031-032-045>047-102-103-260600-
NORTH COAST

CITY           SKY/WX    TMP DP  RH WIND       PRES   REMARKS
EDENTON        CLEAR     68  62  80 S8        30.30F
ELIZABETH CITY CLEAR     67  62  84 S6        30.30F
KITTY HAWK     CLEAR     71  62  74 S5        30.29F
MANTEO         CLEAR     72  63  75 SW13      30.31F

$$

NCZ045>047-081-094-103-104-260600-
CENTRAL COAST

CITY           SKY/WX    TMP DP  RH WIND       PRES   REMARKS
FRISCO         CLEAR     72  61  68 S14       30.32F
SWANQUARTER      N/A     73 N/A N/A S10G20    30.27S

$$

NCZ095-097-098-100-101-260600-
SOUTHERN COAST

CITY           SKY/WX    TMP DP  RH WIND       PRES   REMARKS
BEAUFORT       CLEAR     71  63  75 S8        30.30F
CEDAR ISLAND     N/A     70 N/A N/A S2G8      30.36S
JACKSONVILLE   CLEAR     63  60  90 S5        30.29F
PINEY ISLAND   CLEAR    N/A N/A N/A SE8       30.31F
WILMINGTON     CLEAR     66  63  90 SE3       30.29F


$$

NCZ011>013-027>030-043-044-078>080-089-090>093-098-260600-
COASTAL PLAIN

CITY           SKY/WX    TMP DP  RH WIND       PRES   REMARKS
AHOSKIE        CLEAR     63  59  86 CALM      30.28F
CLINTON        CLEAR     66  63  90 CALM      30.29F
ELIZABETHTOWN  CLEAR     67  64  88 SE3       30.28F
GOLDSBORO      CLEAR     66  62  87 CALM      30.26
GREENVILLE     CLEAR     68  63  83 S5        30.29F
HAVELOCK       CLEAR     63  59  87 SE6       30.31F
KENANSVILLE    CLEAR     62  60  94 CALM      30.30F
KINSTON        CLEAR     66  61  83 CALM      30.29F
NEW BERN       CLEAR     62  59  90 S3        30.31F
RICHLANDS      CLEAR     61  55  82 CALM      30.29F
ROCKY MOUNT    CLEAR     67  61  81 S5        30.28F
WASHINGTON     CLEAR     68  62  79 S8        30.30F
WHITEVILLE     CLEAR     67  64  89 SE3       30.27F

$$

AMZ130-135-150-152-154-156-158-170-250-252-270-ANZ085-086-088-633-658-670-260600-
MARINE OBSERVATIONS

STATION/POSITION TIME  TEMP    WIND        PRES    WAVE   SWELL
                       AIR SEA DIR/SP/G            HT/PER HT/PER
                 (UTC) (F)     (DEG/KT/KT) (MB)    (FT/S) (FT/S)
CHESAPEAKE LIGHT 0400   67     190/ 19/ 19 1026.3
64 E VA BEACH    0450   66 64  180/  8/ 10 1026.0    1/ 7   2/ 7
DUCK             0400   72 62  180/ 11/ 13 1025.5
2 E DUCK         0411      64                N/A     1/ 7
OREGON INLET     0400   73 77  180/ 12/ 15 1026.8
13E OREGON INLT  0500      65                N/A     2/ 4
HATTERAS CG      0400   74 76  170/  8/ 12 1026.5
DIAMOND BUOY     0450   74 76  170/ 14/ 16 1026.6    3/ 6   2/ 8
CAPE LOOKOUT     0500   74     160/ 12/ 13 1026.0
BEAUFORT LAB     0400   74 75  160/ 11/ 13 1025.8
27 SE WRIGHTSVLE 0400   72 76  160/ 10/ 12   N/A
5 SE WRIGHTSVLE  0408   75 77  160/ 14/ 17 1026.0
225 S CAPE HAT   0450   74 74  130/ 14/ 16 1026.9    4/ 6   2/ 6
41 SE CHARLESTON 0450   75 75   90/  6/  8 1024.0    3/ 6   3/ 6

$$


USA.gov is the U.S. government's official web portal to all federal, state and local government web resources and services.